CW6617 Weather Reports


time (UTC)temp
C
wind
direction
speed
KPH
gust
KPH
rain 1hr
cm
rain 24hr
cm
rain mn
cm
humidity
%
barometer
mb
20260901121203 23 279 9.7 24.1 0.00 0.00 0.00 52 1020.7
20260901120704 23 287 3.2 11.3 0.00 0.00 0.00 54 1020.7
20260901120205 23 172 4.8 11.3 0.00 0.00 0.00 55 1020.6
20260901114204 22 194 4.8 14.5 0.00 0.00 0.00 59 1020.7
20260901113703 22 248 3.2 12.9 0.00 0.00 0.00 59 1020.6
20260901113204 21 185 9.7 22.5 0.00 0.00 0.00 62 1020.6
20260901111704 20 179 8.0 20.9 0.00 0.00 0.00 64 1020.8
20260901111204 20 180 6.4 14.5 0.00 0.00 0.00 65 1020.8
20260901110205 20 284 3.2 14.5 0.00 0.00 0.00 66 1020.9
20260901104704 20 188 3.2 16.1 0.00 0.00 0.00 65 1021.0
20260901104205 20 180 9.7 19.3 0.00 0.00 0.00 65 1021.0
20260901103704 20 184 4.8 12.9 0.00 0.00 0.00 65 1021.0
20260901103204 20 186 3.2 12.9 0.00 0.00 0.00 65 1021.0
20260901101203 20 291 9.7 16.1 0.00 0.00 0.00 61 1021.1
20260901100204 20 193 4.8 20.9 0.00 0.03 0.00 62 1021.2
20260901094704 19 175 4.8 12.9 0.00 0.03 0.00 65 1021.2
20260901094204 18 178 4.8 11.3 0.00 0.03 0.00 66 1021.3
20260901093705 18 181 8.0 14.5 0.00 0.03 0.00 66 1021.4
20260901093204 18 179 6.4 14.5 0.00 0.03 0.00 67 1021.4
20260901091705 17 220 1.6 4.8 0.00 0.03 0.00 72 1021.4
20260901091204 17 177 3.2 9.7 0.00 0.03 0.00 73 1021.4
20260901090704 17 271 3.2 9.7 0.00 0.03 0.00 73 1021.4
20260901090203 17 254 0.0 8.0 0.00 0.03 0.00 74 1021.4
20260901083704 16 207 1.6 4.8 0.00 0.03 0.00 81 1021.4
20260901081704 14 184 3.2 9.7 0.00 0.03 0.00 88 1021.2
20260901081204 13 213 0.0 0.0 0.00 0.03 0.00 89 1021.1
20260901074703 12 261 0.0 0.0 0.00 0.03 0.00 92 1021.1
20260901074203 12 261 0.0 0.0 0.00 0.03 0.00 93 1021.1
20260901073704 12 261 0.0 0.0 0.00 0.03 0.00 93 1021.0
20260901071704 12 288 0.0 0.0 0.00 0.03 0.00 94 1021.0
20260901071204 12 292 0.0 0.0 0.00 0.03 0.00 94 1020.9
20260901064704 11 296 0.0 0.0 0.00 0.03 0.00 94 1020.8
20260901064205 11 296 0.0 0.0 0.00 0.03 0.00 94 1020.9
20260901063704 11 296 0.0 0.0 0.00 0.03 0.00 94 1020.8
20260901063204 11 296 0.0 0.0 0.00 0.03 0.00 93 1020.8
20260901061703 11 296 0.0 0.0 0.00 0.03 0.00 93 1020.6
20260901061204 10 296 0.0 0.0 0.00 0.03 0.00 93 1020.6
20260901060706 10 296 0.0 0.0 0.00 0.03 0.00 93 1020.5
20260901060204 10 296 0.0 0.0 0.00 0.03 0.00 93 1020.4
20260901054704 10 297 0.0 0.0 0.00 0.03 0.00 93 1020.2
20260901054203 10 298 0.0 0.0 0.00 0.03 0.00 92 1020.2
20260901053704 10 298 0.0 0.0 0.00 0.03 0.00 92 1020.1
20260901053205 10 298 0.0 0.0 0.00 0.03 0.00 92 1020.2
20260901051703 10 298 0.0 0.0 0.00 0.03 0.00 92 1020.1
20260901051204 10 298 0.0 0.0 0.00 0.03 0.00 92 1020.1
20260901050704 10 298 0.0 0.0 0.00 0.03 0.00 92 1020.0
20260901050204 10 298 0.0 0.0 0.00 0.03 0.00 91 1019.9
20260901044204 10 298 0.0 0.0 0.00 0.03 0.00 91 1019.9
20260901043704 10 298 0.0 0.0 0.00 0.03 0.00 91 1019.9
20260901043204 10 298 0.0 0.0 0.00 0.03 0.00 90 1019.9
20260901041704 10 298 0.0 0.0 0.00 0.03 0.00 90 1019.8
20260901041204 10 298 0.0 0.0 0.00 0.03 0.00 90 1019.7
20260901040203 10 298 0.0 0.0 0.00 0.03 0.00 89 1019.7
20260901034704 10 298 0.0 0.0 0.00 0.03 0.00 90 1019.7
20260901034203 11 298 0.0 0.0 0.00 0.03 0.00 90 1019.7
20260901033204 11 298 0.0 0.0 0.00 0.03 0.00 89 1019.7
20260901031704 11 298 0.0 0.0 0.00 0.03 0.00 89 1019.6
20260901031204 11 298 0.0 0.0 0.00 0.03 0.00 89 1019.7
20260901030703 11 298 0.0 0.0 0.00 0.03 0.00 88 1019.7
20260901030204 11 298 0.0 0.0 0.00 0.03 0.00 88 1019.7
20260901024703 11 298 0.0 0.0 0.00 0.03 0.00 88 1019.7
20260901024204 11 298 0.0 0.0 0.00 0.03 0.00 88 1019.7
20260901023704 11 298 0.0 0.0 0.00 0.03 0.00 88 1019.6
20260901023204 12 298 0.0 0.0 0.00 0.03 0.00 88 1019.6
20260901021706 12 298 0.0 0.0 0.00 0.03 0.00 87 1019.8
20260901021205 12 298 0.0 0.0 0.00 0.03 0.00 87 1019.7
20260901020704 12 298 0.0 0.0 0.00 0.03 0.00 87 1019.8
20260901014704 12 298 0.0 0.0 0.00 0.03 0.00 86 1019.7
20260901013704 12 298 0.0 0.0 0.00 0.03 0.00 86 1019.7
20260901013205 12 298 0.0 0.0 0.00 0.03 0.00 86 1019.7
20260901011203 13 298 0.0 0.0 0.00 0.03 0.00 85 1019.6
20260901010704 13 298 0.0 0.0 0.00 0.03 0.00 85 1019.6
20260901004704 13 298 0.0 0.0 0.00 0.03 0.00 84 1019.6
20260901003704 13 298 0.0 0.0 0.00 0.03 0.00 84 1019.5
20260901003204 13 298 0.0 3.2 0.00 0.03 0.00 83 1019.5
20260901001705 14 308 0.0 1.6 0.00 0.03 0.00 82 1019.5
20260901001203 14 308 0.0 1.6 0.00 0.03 0.00 82 1019.5
20260901000704 14 308 0.0 1.6 0.00 0.03 0.00 81 1019.4
20260901000204 14 308 0.0 0.0 0.00 0.03 0.00 81 1019.5
20260831234705 15 308 0.0 3.2 0.00 0.03 0.00 80 1019.5
20260831234204 15 308 0.0 1.6 0.00 0.03 0.00 79 1019.5
20260831233705 15 308 0.0 0.0 0.00 0.03 0.00 78 1019.4
20260831233204 15 308 0.0 0.0 0.00 0.03 0.00 78 1019.4
20260831231704 15 308 1.6 1.6 0.00 0.03 0.00 77 1019.4
20260831230204 15 283 3.2 11.3 0.00 0.03 0.00 77 1019.2
20260831224204 15 276 3.2 8.0 0.00 0.03 0.03 77 1019.3
20260831223704 16 269 6.4 9.7 0.00 0.03 0.03 77 1019.2
20260831223204 16 275 6.4 12.9 0.00 0.03 0.03 78 1019.2
20260831221704 16 288 0.0 3.2 0.00 0.03 0.03 78 1019.1
20260831221204 16 288 0.0 1.6 0.00 0.03 0.03 78 1019.1
20260831220703 16 288 0.0 1.6 0.00 0.03 0.03 78 1019.1
20260831220205 16 289 0.0 8.0 0.00 0.03 0.03 77 1018.9
20260831214704 16 277 1.6 8.0 0.00 0.03 0.03 77 1018.8
20260831214204 16 271 0.0 3.2 0.00 0.03 0.03 77 1018.9
20260831213704 16 271 0.0 3.2 0.00 0.03 0.03 77 1018.8
20260831213203 16 270 0.0 3.2 0.00 0.03 0.03 77 1018.8
20260831211704 16 269 0.0 1.6 0.00 0.03 0.03 76 1018.6
20260831211203 16 273 1.6 4.8 0.00 0.03 0.03 75 1018.5
20260831210704 16 288 0.0 1.6 0.00 0.03 0.03 75 1018.4
20260831210204 17 286 3.2 8.0 0.00 0.03 0.03 75 1018.4
20260831204204 17 278 0.0 0.0 0.00 0.03 0.03 74 1018.3
20260831203704 17 279 0.0 3.2 0.00 0.03 0.03 74 1018.3
20260831201704 17 290 1.6 8.0 0.00 0.03 0.03 73 1018.1
20260831201203 17 278 1.6 4.8 0.00 0.05 0.03 73 1018.1
20260831200703 17 237 1.6 4.8 0.00 0.08 0.03 73 1018.0
20260831200204 17 258 3.2 8.0 0.00 0.08 0.03 73 1017.9
20260831194703 17 273 0.0 1.6 0.00 0.08 0.03 73 1017.7
20260831194203 17 274 0.0 1.6 0.00 0.08 0.03 73 1017.6
20260831193705 17 274 0.0 3.2 0.00 0.08 0.03 73 1017.5
20260831191205 18 292 4.8 12.9 0.00 0.08 0.03 71 1016.9
20260831190703 18 297 3.2 8.0 0.00 0.08 0.03 71 1016.9
20260831190204 18 246 3.2 14.5 0.00 0.08 0.03 71 1016.9
20260831184704 18 282 8.0 12.9 0.00 0.08 0.03 71 1016.8
20260831183704 18 295 8.0 14.5 0.00 0.08 0.03 71 1016.7
20260831183206 19 281 8.0 19.3 0.00 0.08 0.03 71 1016.7
20260831181704 19 290 8.0 19.3 0.00 0.08 0.03 70 1016.5
20260831181204 19 276 4.8 11.3 0.00 0.08 0.03 70 1016.5
20260831180704 19 290 3.2 16.1 0.00 0.08 0.03 70 1016.5
20260831180203 20 274 8.0 20.9 0.00 0.08 0.03 69 1016.4
20260831174704 20 278 6.4 20.9 0.00 0.08 0.03 68 1016.2
20260831174204 20 268 8.0 16.1 0.00 0.08 0.03 68 1016.2
20260831173704 20 283 8.0 20.9 0.00 0.08 0.03 68 1016.1
20260831173205 21 283 8.0 24.1 0.00 0.08 0.03 68 1016.0
20260831171704 21 281 4.8 19.3 0.00 0.08 0.03 67 1015.8
20260831171204 21 264 8.0 22.5 0.00 0.08 0.03 66 1015.7
20260831170705 21 264 6.4 27.4 0.00 0.08 0.03 66 1015.6
20260831170203 21 290 9.7 25.7 0.00 0.08 0.03 66 1015.5
20260831164704 21 262 8.0 19.3 0.00 0.08 0.03 68 1015.3
20260831164204 21 289 9.7 27.4 0.00 0.08 0.03 69 1015.3
20260831163705 21 266 8.0 22.5 0.00 0.08 0.03 68 1015.2
20260831163204 21 255 6.4 24.1 0.00 0.08 0.03 68 1015.2
20260831161703 21 283 4.8 12.9 0.00 0.08 0.03 67 1015.0
20260831161204 21 293 3.2 8.0 0.00 0.08 0.03 67 1014.9
20260831160704 21 255 1.6 8.0 0.00 0.08 0.03 66 1014.8
20260831160204 22 280 3.2 19.3 0.00 0.08 0.03 66 1014.9
20260831154704 22 248 3.2 14.5 0.00 0.08 0.03 64 1014.7
20260831154204 22 246 4.8 14.5 0.00 0.08 0.03 64 1014.7
20260831153704 22 236 3.2 14.5 0.00 0.08 0.03 63 1014.7
20260831151704 23 276 4.8 14.5 0.00 0.08 0.03 59 1014.3
20260831151203 24 294 12.9 20.9 0.00 0.08 0.03 58 1014.2
20260831150703 24 210 9.7 24.1 0.00 0.08 0.03 57 1014.1
20260831150204 24 294 8.0 27.4 0.00 0.08 0.03 57 1014.0
20260831144704 24 293 11.3 20.9 0.00 0.08 0.03 58 1014.0
20260831144204 24 283 14.5 22.5 0.00 0.08 0.03 57 1014.0
20260831143704 23 284 14.5 24.1 0.00 0.08 0.03 60 1013.8
20260831143204 23 221 3.2 14.5 0.00 0.08 0.03 61 1013.7
20260831141703 24 213 6.4 16.1 0.00 0.08 0.03 58 1013.8
20260831141204 25 285 9.7 19.3 0.00 0.08 0.03 58 1013.8
20260831140704 25 289 4.8 16.1 0.00 0.08 0.03 59 1013.7
20260831140204 25 272 11.3 20.9 0.00 0.08 0.03 59 1013.6
20260831134704 23 247 4.8 19.3 0.00 0.08 0.03 63 1013.6
20260831134204 23 225 1.6 11.3 0.00 0.08 0.03 63 1013.5
20260831133204 22 282 14.5 22.5 0.00 0.08 0.03 62 1013.4
20260831131703 22 267 6.4 19.3 0.00 0.08 0.03 65 1013.2
20260831131204 22 262 4.8 16.1 0.00 0.08 0.03 66 1013.2
20260831130704 21 300 9.7 16.1 0.00 0.08 0.03 66 1013.2
20260831130203 21 297 9.7 25.7 0.00 0.08 0.03 65 1013.1
20260831124704 22 309 11.3 20.9 0.00 0.08 0.03 66 1013.0
20260831124203 22 302 11.3 20.9 0.00 0.08 0.03 66 1013.0
20260831123204 21 245 4.8 20.9 0.00 0.08 0.03 73 1012.8